This is the latest recevied weather packets stored in our database for station/object W6MAF. If no packets are shown the sender has not sent any weather packets the latest 10 day(s).
| Time | Temp. | Humidity | Pressure | Rain* | Wind** | Luminosity | Snow |
|---|---|---|---|---|---|---|---|
| 1777447441 | 8.33° C | 48% | - | 0 mm | 0 m/s | - | - |
| 1777447144 | 8.33° C | 47% | - | 0 mm | 0 m/s | - | - |
| 1777446846 | 8.89° C | 47% | - | 0 mm | 1.79 m/s, 242° | - | - |
| 1777446549 | 8.89° C | 46% | - | 0 mm | 2.24 m/s, 252° | - | - |
| 1777446251 | 8.89° C | 46% | - | 0 mm | 2.68 m/s, 246° | - | - |
| 1777445953 | 9.44° C | 45% | - | 0 mm | 2.24 m/s, 253° | - | - |
| 1777445652 | 9.44° C | 45% | - | 0 mm | 1.34 m/s, 243° | - | - |
| 1777445355 | 9.44° C | 44% | - | 0 mm | 1.79 m/s, 263° | - | - |
| 1777445057 | 9.44° C | 44% | - | 0 mm | 0.45 m/s, 283° | - | - |
| 1777444759 | 10° C | 44% | - | 0 mm | 0 m/s | - | - |
| 1777444562 | 10° C | 44% | - | 0 mm | 0.45 m/s, 308° | - | - |
| 1777444462 | 10° C | 44% | - | 0 mm | 0.45 m/s, 308° | - | - |
| 1777444164 | 10° C | 44% | - | 0 mm | 2.24 m/s, 287° | - | - |
| 1777443863 | 10° C | 44% | - | 0 mm | 1.79 m/s, 346° | - | - |
| 1777443565 | 10° C | 44% | - | 0 mm | 0 m/s | - | - |
| 1777443269 | 10° C | 44% | - | 0 mm | 0.45 m/s, 290° | - | - |
| 1777442970 | 9.44° C | 45% | - | 0 mm | 2.68 m/s, 314° | - | - |
| 1777442672 | 9.44° C | 47% | - | 0 mm | 0.89 m/s, 322° | - | - |
| 1777442375 | 9.44° C | 48% | - | 0 mm | 2.24 m/s, 32° | - | - |
| 1777442074 | 9.44° C | 50% | - | 0 mm | 0.89 m/s, 294° | - | - |
| 1777441479 | 10° C | 50% | - | 0 mm | 4.47 m/s, 210° | - | - |
| 1777441235 | 10° C | 50% | - | 0 mm | 4.02 m/s, 222° | - | - |
| 1777441181 | 10° C | 50% | - | 0 mm | 4.02 m/s, 222° | - | - |
| 1777440883 | 10° C | 50% | - | 0 mm | 3.58 m/s, 238° | - | - |
| 1777440585 | 10° C | 50% | - | 0 mm | 4.47 m/s, 158° | - | - |
* Rain latest hour (hover to see other rain measurements)
** Current wind speed in m/s (hover to see current wind gust speed)